Change the Weather History Date:

Tuesday, May 28, 2013

  Actual Average Record
Temperature  
Mean Temperature 51 °F -  
Max Temperature 53 °F 67 °F 79 °F (2012)
Min Temperature 48 °F 52 °F 42 °F (2000)
Degree Days  
Heating Degree Days 14    
Growing Degree Days 1 (Base 50)    
Moisture  
Dew Point 47 °F    
Average Humidity 87    
Maximum Humidity 100    
Minimum Humidity 48    
Precipitation  
Precipitation 0.55 in - - ()
Sea Level Pressure  
Sea Level Pressure 29.54 in    
Wind  
Wind Speed 5 mph ()    
Max Wind Speed 12 mph    
Max Gust Speed -    
Visibility 5.8 miles    
Events Rain    
Averages and records for this station are not official NWS values.
T = Trace of Precipitation, MM = Missing Value Source: Averaged Metar Reports

Daily Weather History Graph

Daily Weather History Graph

Search for Another Location

Airport or City:

Trip Planner

Search our weather history database for the weather conditions in past years. The results will help you decide how hot, cold, wet, or windy it might be!

Date:

Astronomy

May. 28, 2013 Rise Set
Actual Time 4:53 AM BST 9:05 PM BST
Civil Twilight 4:09 AM BST 9:49 PM BST
Nautical Twilight 3:05 AM BST 10:54 PM BST
Astronomical Twilight 1:31 AM BST 12:26 AM BST
Moon No Moon Rise 8:34 AM BST (5/28)
Length of Visible Light 17h 40m
Length of Day
16h 11m
Waning Gibbous, 85% of the Moon is Illuminated
May 28
Waning Gibbous
May 31
Last Quarter
Jun 8
New
Jun 16
First Quarter
Jun 23
Full

Hourly Weather History & Observations

Time (BST) Temp. Dew Point Humidity Pressure Visibility Wind Dir Wind Speed Gust Speed Precip Events Conditions
12:20 AM 53.6 °F 41.0 °F 62% 29.62 in - SE 6.9 mph - N/A   Clear
12:50 AM 54 °F 40 °F 48% 29.62 in 15 mi ESE 5.8 mph - -   Mostly Cloudy
12:50 AM 53.6 °F 42.8 °F 67% 29.62 in - ESE 5.8 mph - N/A   Clear
1:20 AM 53.6 °F 41.0 °F 62% 29.62 in 6.2 mi South 4.6 mph - N/A   Unknown
1:50 AM 53.6 °F 42.8 °F 67% 29.62 in 6.2 mi SSE 4.6 mph - N/A   Unknown
2:20 AM 53.6 °F 44.6 °F 72% 29.59 in 6.2 mi South 4.6 mph - N/A Rain Light Rain
2:50 AM 51.8 °F 44.6 °F 76% 29.59 in - SE 4.6 mph - N/A   Clear
3:20 AM 51.8 °F 44.6 °F 76% 29.59 in 6.2 mi Variable 3.5 mph - N/A Rain Light Rain
3:50 AM 51 °F 44 °F 70% 29.59 in 12 mi SE 3.5 mph - - Rain Light Rain Showers
3:50 AM 51.8 °F 46.4 °F 82% 29.59 in 6.2 mi SSE 4.6 mph - N/A Rain Light Rain
4:20 AM 51.8 °F 46.4 °F 82% 29.59 in 6.2 mi SE 4.6 mph - N/A Rain Light Rain
4:50 AM 51.8 °F 46.4 °F 82% 29.59 in 6.2 mi SE 5.8 mph - N/A Rain Light Rain
5:20 AM 50.0 °F 46.4 °F 87% 29.59 in 5.6 mi ESE 4.6 mph - N/A Rain Light Rain
5:50 AM 50.0 °F 46.4 °F 87% 29.56 in 4.3 mi Variable 3.5 mph - N/A Rain Light Rain
6:20 AM 50.0 °F 48.2 °F 94% 29.56 in 3.7 mi East 3.5 mph - N/A Rain Light Rain
6:50 AM 50 °F 48 °F 89% 29.57 in 2 mi ENE 3.5 mph - - Rain Rain
6:50 AM 50.0 °F 48.2 °F 94% 29.56 in 3.7 mi ENE 3.5 mph - N/A Rain Light Rain
7:20 AM 50.0 °F 48.2 °F 94% 29.56 in 3.1 mi East 4.6 mph - N/A Rain Light Rain
7:50 AM 50.0 °F 48.2 °F 94% 29.56 in 3.1 mi ENE 4.6 mph - N/A Rain Light Rain
8:20 AM 50.0 °F 50.0 °F 100% 29.56 in 3.7 mi NE 5.8 mph - N/A Rain Light Rain
8:50 AM 50.0 °F 48.2 °F 94% 29.53 in 4.3 mi NNE 5.8 mph - N/A Rain Light Rain
9:20 AM 51.8 °F 50.0 °F 94% 29.53 in 4.3 mi NE 6.9 mph - N/A Rain Light Rain
9:50 AM 51 °F 49 °F 91% 29.54 in 4 mi NNE 4.6 mph - - Rain Light Rain Showers
9:50 AM 51.8 °F 50.0 °F 94% 29.53 in 3.1 mi NE 4.6 mph - N/A Rain Light Rain
10:20 AM 50.0 °F 50.0 °F 100% 29.53 in 3.7 mi Variable 3.5 mph - N/A Rain Light Rain
10:50 AM 50.0 °F 50.0 °F 100% 29.50 in 3.1 mi NW 4.6 mph - N/A Rain Light Rain
11:20 AM 50.0 °F 50.0 °F 100% 29.50 in 2.2 mi WNW 5.8 mph - N/A Rain Light Rain
11:50 AM 50.0 °F 50.0 °F 100% 29.50 in 2.8 mi East 5.8 mph - N/A Rain Rain
12:20 PM 51.8 °F 51.8 °F 100% 29.50 in 2.5 mi East 11.5 mph - N/A Rain Rain
12:50 PM 51 °F 49 °F 92% 29.49 in 1 mi SW 9.2 mph - - Rain Heavy Rain
12:50 PM 50.0 °F 50.0 °F 100% 29.47 in 1.9 mi SW 9.2 mph - N/A Rain Rain
1:20 PM 50.0 °F 50.0 °F 100% 29.47 in 3.7 mi West 8.1 mph - N/A Rain Light Rain
1:50 PM 50.0 °F 50.0 °F 100% 29.47 in 3.7 mi West 9.2 mph - N/A Rain Light Rain
2:20 PM 50.0 °F 50.0 °F 100% 29.50 in 3.7 mi SW 9.2 mph - N/A Rain Rain
2:50 PM 50.0 °F 48.2 °F 94% 29.50 in 6.2 mi WSW 10.4 mph - N/A Rain Light Rain
3:20 PM 51.8 °F 50.0 °F 94% 29.50 in 6.2 mi WNW 5.8 mph - N/A Rain Light Rain
3:50 PM 53 °F 49 °F 80% 29.50 in 19 mi West 4.6 mph - - Rain Rain
3:50 PM 53.6 °F 50.0 °F 88% 29.50 in 6.2 mi WNW 4.6 mph - N/A   Mostly Cloudy
4:20 PM 51.8 °F 48.2 °F 88% 29.50 in 6.2 mi Variable 2.3 mph - N/A   Mostly Cloudy
4:50 PM 51.8 °F 50.0 °F 94% 29.50 in 6.2 mi SW 5.8 mph - N/A   Mostly Cloudy
5:20 PM 53.6 °F 50.0 °F 88% 29.50 in 6.2 mi SW 8.1 mph - N/A   Mostly Cloudy
5:50 PM 53.6 °F 48.2 °F 82% 29.50 in 6.2 mi SW 6.9 mph - N/A   Mostly Cloudy
6:20 PM 53.6 °F 48.2 °F 82% 29.50 in 6.2 mi Variable 4.6 mph - N/A   Mostly Cloudy
6:50 PM 53 °F 47 °F 73% 29.52 in 22 mi SSW 5.8 mph - -   Partly Cloudy
6:50 PM 51.8 °F 48.2 °F 88% 29.50 in 6.2 mi SSW 5.8 mph - N/A   Mostly Cloudy
7:20 PM 51.8 °F 48.2 °F 88% 29.50 in 6.2 mi SW 8.1 mph - N/A   Mostly Cloudy
7:50 PM 51.8 °F 46.4 °F 82% 29.53 in 6.2 mi SSW 6.9 mph - N/A   Mostly Cloudy
8:20 PM 51.8 °F 46.4 °F 82% 29.53 in 6.2 mi SW 5.8 mph - N/A   Scattered Clouds
8:50 PM 50.0 °F 48.2 °F 94% 29.53 in 6.2 mi SW 6.9 mph - N/A   Scattered Clouds
9:20 PM 50.0 °F 48.2 °F 94% 29.53 in 6.2 mi SW 5.8 mph - N/A   Partly Cloudy
9:50 PM 51 °F 45 °F 74% 29.56 in 19 mi South 6.9 mph - -   Partly Cloudy
9:50 PM 50.0 °F 46.4 °F 87% 29.56 in 6.2 mi South 6.9 mph - N/A   Scattered Clouds
10:20 PM 50.0 °F 46.4 °F 87% 29.56 in 6.2 mi SW 6.9 mph - N/A   Scattered Clouds
10:50 PM 50.0 °F 48.2 °F 94% 29.56 in 6.2 mi SW 6.9 mph - N/A   Scattered Clouds
11:20 PM 50.0 °F 46.4 °F 87% 29.56 in 6.2 mi SW 6.9 mph - N/A   Mostly Cloudy
11:50 PM 48.2 °F 46.4 °F 93% 29.56 in 6.2 mi SW 5.8 mph - N/A   Partly Cloudy